Forside
METAR-TAF:

METAR-TAF

Lufthavne :

Lawrence Municipal Airport

Lawrence, Kansas, USA

Breddekreds: 39-00-30N, længdekreds: 095-12-42W, højde: 253 m

Aktuelle vejr

Denne rapport blev lavet for 1 time og 7 minutter siden, kl. 20:52 UTC
Vind 7 kt fra sydsydøst
Temperatur 14°C
Fugtighed 41%
Tryk 1017 hPa
Sigt: 16.1 km
skyfri

METAR: KLWC 162052Z AUTO 16007KT 10SM CLR 14/01 A3002 RMK AO2 SLP169 T01440011 56027 TSNO

Tid: 15:59 (21:59 UTC)


TAF: fraværende

Vejrobservationer og prognoser fra mere end 4000 lufthavne (METAR og TAF).

De gule og røde prikker repræsenterer de meteorologiske stationer.

Flyt musen over at se navnet på stationen.

Så klik over at se vejr observationer og prognoser.

At skifte det kort: Klik på de grønne knapper med et sort kors for at zoome ind; på den grønne knap med en bindestreg for at zoome ud; eller på de grønne pile for tilstødende kort.


METAR-TAF: